Terminal Aerodrome Forecast
Issued by NWS Milwaukee/Sullivan, WI

Home | Current Version | Previous Version | Text Only | Print | Product List | Glossary On
Versions: 1 2 3 4 5 6 7 8 9 10 11 12 13 14 15 16 17 18 19 20 21 22 23 24 25 26 27 28 29 30 31 32 33 34 35 36 37 38 39 40 41 42 43 44 45 46 47 48 49 50
000
FTUS43 KMKX 311832 AAA
TAFMKE
TAF AMD
KMKE 311832Z 3119/0124 21009KT P6SM SCT021
     FM312000 16010KT P6SM SCT022
     FM010000 16006KT P6SM FEW250
     FM010500 20004KT 4SM BR SCT250
      TEMPO 0110/0113 2SM BR
     FM011900 19010KT P6SM FEW130=

USA.gov is the U.S. government's official web portal to all federal, state and local government web resources and services.